Flag for Finland Weather past 2 weeks in Turku, Finland

Now
37 °F

Fog.


Feels Like: 33 °F
Forecast: 32 / 36 °F
Wind: 6 mph from Southwest

Location: Turku Airport

Current Time: Mar 2, 2015 at 1:48:24 PM

Latest Report: Mar 2, 2015 at 1:20 PM


Visibility: 2 mi

Pressure: 29.36 "Hg

Humidity: 93%

Dew point: 36 °F

Location of TurkuLocation

Historic Weather in Turku — Graph

°F

Turku temperature yesterday

Maximum temperature yesterday: 37 °F (at 3:20 AM)
Minimum temperature yesterday: 36 °F (at 12:20 AM)
Average temperature yesterday: 36 °F

Past Weeks' High & Low Weather Summary

 TemperatureHumidityPressure
High41 °F (Feb 19, 3:50 PM)100% (Feb 18, 2:50 AM)30.77 "Hg (Feb 18, 2:50 AM)
Low14 °F (Feb 15, 7:20 PM)45% (Feb 18, 2:20 PM)29.09 "Hg (Feb 22, 6:50 AM)
Average34 °F85%29.84 "Hg
* Reported Feb 15 12:20 PM — Mar 2 12:50 PM, Turku, Weather by CustomWeather, © 2015

Note: Actual official high and low records may vary slightly from our data, if they occured in-between our weather recording intervals... More about our weather records

Advertising

Turku weather history for previous 24 hours

 ConditionsComfort  
Time TempWeatherWind HumidityBarometerVisibility
12:50 PM
Mon, Mar 2
37 °FLight rain. Fog.7 mph93%29.36 "Hg2 mi
12:20 PM37 °FLight rain. Fog.8 mph93%29.39 "Hg1 mi
11:50 AM37 °FDrizzle. Fog.8 mph93%29.39 "Hg1 mi
11:20 AM36 °FLight rain. Fog.6 mph100%29.36 "Hg1 mi
10:50 AM37 °FDrizzle. Fog.8 mph93%29.36 "Hg1 mi
10:20 AM36 °FDrizzle. Fog.7 mph100%29.36 "Hg2 mi
9:50 AM36 °FLight rain. Fog.8 mph100%29.36 "Hg2 mi
9:20 AM36 °FLight rain. Low clouds.9 mph100%29.36 "Hg2 mi
8:50 AM36 °FRain. Fog.7 mph100%29.36 "Hg2 mi
8:20 AM36 °FLight rain. Fog.9 mph100%29.36 "Hg2 mi
7:50 AM36 °FLight rain. Fog.8 mph93%29.36 "Hg2 mi
7:20 AM36 °FRain. Fog.8 mph93%29.36 "Hg3 mi
6:50 AM36 °FLight rain. Fog.9 mph93%29.36 "Hg3 mi
6:20 AM36 °FLight rain. Fog.12 mph93%29.39 "Hg3 mi
5:50 AM36 °FLight rain. Low clouds.10 mph93%29.39 "Hg4 mi
5:20 AM36 °FLight rain. Low clouds.10 mph93%29.39 "Hg4 mi
4:50 AM36 °FLight rain. Low clouds.10 mph93%29.39 "Hg4 mi
4:20 AM36 °FLight rain. Overcast.10 mph93%29.39 "Hg5 mi
3:50 AM37 °FOvercast.12 mph81%29.42 "HgN/A
3:20 AM37 °FMostly cloudy.10 mph81%29.42 "HgN/A
2:50 AM37 °FMostly cloudy.12 mph81%29.42 "HgN/A
2:20 AM37 °FMostly cloudy.10 mph75%29.45 "HgN/A
1:50 AM37 °FOvercast.12 mph75%29.45 "HgN/A
1:20 AM37 °FPartly cloudy.12 mph75%29.45 "HgN/A
12:50 AM37 °FPassing clouds.12 mph70%29.47 "HgN/A
12:20 AM37 °FPassing clouds.12 mph70%29.47 "HgN/A
11:50 PM
Sun, Mar 1
37 °FPassing clouds.13 mph70%29.47 "HgN/A
11:20 PM37 °FPartly cloudy.13 mph70%29.50 "HgN/A
10:50 PM36 °FPassing clouds.12 mph75%29.50 "HgN/A
10:20 PM36 °FPartly cloudy.12 mph75%29.53 "HgN/A
9:20 PM36 °FPassing clouds.10 mph75%29.53 "HgN/A
8:50 PM36 °FPassing clouds.12 mph81%29.56 "HgN/A
8:20 PM36 °FPassing clouds.10 mph75%29.56 "HgN/A
7:50 PM36 °FPassing clouds.10 mph81%29.56 "HgN/A
7:20 PM36 °FPassing clouds.10 mph81%29.59 "HgN/A
6:50 PM36 °FPassing clouds.9 mph75%29.59 "HgN/A
6:20 PM36 °FPassing clouds.9 mph75%29.59 "HgN/A
5:50 PM36 °FPartly sunny.14 mph75%29.62 "HgN/A
5:20 PM36 °FMostly cloudy.14 mph75%29.62 "HgN/A
4:50 PM36 °FMostly cloudy.9 mph75%29.62 "HgN/A
4:20 PM37 °FMostly cloudy.12 mph75%29.62 "HgN/A
3:50 PM37 °FOvercast.8 mph70%29.65 "HgN/A
3:20 PM37 °FOvercast.14 mph70%29.65 "HgN/A
2:50 PM37 °FOvercast.9 mph70%29.68 "HgN/A
2:20 PM36 °FOvercast.14 mph70%29.68 "HgN/A
Weather by CustomWeather, © 2015

See weather overviewHow to use our weather pages